Springfield, CO

7:38 AM MDT on September 22, 2017 (GMT -0600)
Springfield

Weather History for KSPD - February, 2013

Change the Weather History Date:

Thursday, February 21, 2013

  Actual Average Record
Temperature  
Mean Temperature 23 °F -  
Max Temperature 29 °F 51 °F 77 °F (2017)
Min Temperature 16 °F 22 °F 10 °F (2006)
Degree Days  
Heating Degree Days 42 29  
Month to date heating degree days 602 638  
Since 1 July heating degree days 3532 3814  
Cooling Degree Days 0 0  
Month to date cooling degree days 0 0  
Year to date cooling degree days 0 0  
Moisture  
Dew Point 20 °F    
Average Humidity 91    
Maximum Humidity 100    
Minimum Humidity 81    
Precipitation  
Precipitation 0.01 in 0.01 in 0.18 in (2015)
Month to date precipitation 0.11 0.35  
Year to date precipitation 0.13 0.72  
Sea Level Pressure  
Sea Level Pressure 29.76 in    
Wind  
Wind Speed 14 mph (NNE)    
Max Wind Speed 23 mph    
Max Gust Speed 26 mph    
T = Trace of Precipitation, MM = Missing Value Source: NWS Daily Summary

Daily Weather History Graph

Daily Weather History Graph

Search for Another Location

Airport or City:

Trip Planner

Search our weather history database for the weather conditions in past years. The results will help you decide how hot, cold, wet, or windy it might be!

Date:

Astronomy

Feb. 21, 2013 Rise Set
Actual Time 6:31 AM MST 5:36 PM MST
Civil Twilight 6:05 AM MST 6:03 PM MST
Nautical Twilight 5:35 AM MST 6:33 PM MST
Astronomical Twilight 5:04 AM MST 7:03 PM MST
Moon 1:56 PM MST (2/21) 3:34 AM MST (2/21)
Length of Visible Light 11h 57m
Length of Day
11h 04m
Waxing Gibbous, 84% of the Moon is Illuminated
Feb 21
Waxing Gibbous
Feb 25
Full
Mar 4
Last Quarter
Mar 11
New
Mar 19
First Quarter

Hourly Weather History & Observations

Time (MST) Temp. Windchill Dew Point Humidity Pressure Visibility Wind Dir Wind Speed Gust Speed Precip Events Conditions
12:56 AM 28.9 °F 16.5 °F 28.9 °F 100% 29.59 in - South 18.4 mph - N/A   Unknown
1:56 AM 28.9 °F 16.5 °F 28.0 °F 96% 29.62 in - SSE 18.4 mph - N/A   Unknown
2:56 AM 28.0 °F 17.0 °F 27.0 °F 96% 29.61 in - SE 13.8 mph - N/A   Unknown
3:56 AM 27.0 °F 17.3 °F 26.1 °F 96% 29.60 in - SSE 10.4 mph - N/A   Unknown
4:56 AM 27.0 °F - 26.1 °F 96% 29.60 in - Calm Calm - N/A   Unknown
5:56 AM 27.0 °F 20.5 °F 26.1 °F 96% 29.61 in - East 5.8 mph - N/A   Unknown
6:56 AM 27.0 °F 18.7 °F 26.1 °F 96% 29.61 in - East 8.1 mph - N/A   Unknown
7:56 AM 26.1 °F 14.5 °F 25.0 °F 96% 29.65 in - East 13.8 mph - N/A   Unknown
8:56 AM 19.9 °F 5.2 °F 18.0 °F 92% 29.70 in - NE 17.3 mph - 0.01 in   Unknown
9:56 AM 18.0 °F 2.2 °F 16.0 °F 92% 29.74 in - NNE 18.4 mph - N/A   Unknown
10:56 AM 19.0 °F 5.0 °F 16.0 °F 88% 29.76 in - North 15.0 mph - N/A   Unknown
11:56 AM 21.0 °F 5.7 °F 17.1 °F 85% 29.77 in - North 19.6 mph - N/A   Unknown
12:56 PM 21.9 °F 7.3 °F 17.1 °F 82% 29.77 in - North 18.4 mph - N/A   Unknown
1:56 PM 21.9 °F 6.5 °F 18.0 °F 85% 29.76 in - North 20.7 mph - N/A   Unknown
2:56 PM 23.0 °F 8.7 °F 18.0 °F 81% 29.79 in - North 18.4 mph - N/A   Unknown
3:56 PM 23.0 °F 10.1 °F 18.0 °F 81% 29.81 in - North 15.0 mph - N/A   Unknown
4:56 PM 21.9 °F 12.5 °F 18.0 °F 85% 29.82 in - North 8.1 mph - N/A   Unknown
5:56 PM 21.0 °F 6.6 °F 18.0 °F 88% 29.85 in - North 17.3 mph - N/A   Unknown
6:56 PM 19.9 °F 5.7 °F 16.0 °F 85% 29.86 in - North 16.1 mph - N/A   Unknown
7:56 PM 19.0 °F 6.8 °F 15.1 °F 85% 29.91 in - NNW 11.5 mph - N/A   Unknown
8:56 PM 19.9 °F 6.7 °F 15.1 °F 81% 29.96 in - NNW 13.8 mph - N/A   Unknown
9:56 PM 19.0 °F 6.1 °F 15.1 °F 85% 29.97 in - North 12.7 mph - N/A   Unknown
10:56 PM 18.0 °F 6.1 °F 14.0 °F 84% 29.98 in - NW 10.4 mph - N/A   Unknown
11:56 PM 16.0 °F 2.3 °F 12.0 °F 84% 29.98 in - NW 12.7 mph - N/A   Unknown